Flag for Romania Weather past 2 weeks in Bucharest, Romania

68 °F

Scattered clouds.

Feels Like: 68 °F
Forecast: 45 / 56 °F
Wind: 18 mph from Northeast

Location: Bucharest / Imh

Current Time: Oct 7, 2015 at 3:33:40 PM

Latest Report: Oct 7, 2015 at 3:00 PM

Visibility: N/A

Pressure: 29.92 "Hg

Humidity: 64%

Dew point: 55 °F

Location of BucharestLocation

Historic Weather in Bucharest — Graph


Bucharest temperature yesterday

Maximum temperature yesterday: 72 °F (at 1:30 PM)
Minimum temperature yesterday: 54 °F (at 6:30 AM)
Average temperature yesterday: 62 °F

Past Weeks' High & Low Weather Summary

High81 °F (Sep 25, 4:00 PM)100% (Sep 24, 8:00 AM)30.45 "Hg (Sep 24, 8:00 AM)
Low48 °F (Oct 3, 5:30 AM)44% (Sep 22, 3:00 PM)29.80 "Hg (Oct 6, 5:30 PM)
Average62 °F78%30.09 "Hg
* Reported Sep 22 2:00 PM — Oct 7 2:30 PM, Bucharest, Weather by CustomWeather, © 2015

Note: Actual official high and low records may vary slightly from our data, if they occured in-between our weather recording intervals... More about our weather records


Bucharest weather history for previous 24 hours

Time TempWeatherWind HumidityBarometerVisibility
2:30 PM
Wed, Oct 7
68 °FScattered clouds.15 mph69%29.92 "HgN/A
2:00 PM68 °FPassing clouds.15 mph69%29.92 "HgN/A
1:30 PM66 °FPartly sunny.13 mph73%29.92 "HgN/A
1:00 PM68 °FScattered clouds.13 mph64%29.92 "HgN/A
12:30 PM66 °FScattered clouds.10 mph68%29.89 "HgN/A
12:00 PM66 °FScattered clouds.9 mph68%29.89 "HgN/A
11:30 AM68 °FScattered clouds.9 mph64%29.89 "Hg10 mi
11:00 AM66 °FSunny.1 mph68%29.89 "Hg10 mi
10:30 AM64 °FSunny.1 mph78%29.89 "Hg10 mi
10:00 AM59 °FSunny.No wind88%29.89 "Hg10 mi
9:30 AM59 °FSunny.No wind88%29.89 "Hg10 mi
9:00 AM57 °FClear.No wind88%29.86 "Hg5 mi
8:30 AM57 °FCool.2 mph88%29.86 "HgN/A
8:00 AM55 °FClear.2 mph88%29.86 "Hg5 mi
7:30 AM54 °FClear.1 mph94%29.86 "Hg10 mi
7:00 AM54 °FFog.2 mph100%29.83 "Hg6 mi
6:30 AM55 °FClear.2 mph94%29.83 "Hg10 mi
6:00 AM55 °FClear.1 mph94%29.83 "Hg10 mi
5:30 AM55 °FClear.1 mph94%29.83 "Hg10 mi
5:00 AM54 °FClear.3 mph94%29.83 "Hg5 mi
4:30 AM54 °FFog.2 mph94%29.83 "Hg5 mi
4:00 AM54 °FClear.2 mph100%29.83 "Hg10 mi
3:30 AM55 °FFog.1 mph94%29.83 "Hg5 mi
3:00 AM55 °FFog.2 mph94%29.83 "Hg5 mi
2:30 AM55 °FClear.1 mph94%29.86 "Hg4 mi
2:00 AM57 °FClear.2 mph94%29.86 "Hg5 mi
1:30 AM57 °FClear.2 mph94%29.86 "Hg5 mi
1:00 AM57 °FClear.2 mph100%29.86 "Hg10 mi
12:30 AM59 °FClear.1 mph94%29.86 "Hg5 mi
12:00 AM59 °FClear.1 mph94%29.86 "Hg10 mi
11:30 PM
Tue, Oct 6
59 °FPassing clouds.2 mph94%29.86 "HgN/A
11:00 PM61 °FPassing clouds.3 mph88%29.86 "HgN/A
10:30 PM63 °FPassing clouds.No wind83%29.86 "HgN/A
10:00 PM63 °FClear.No wind83%29.83 "Hg10 mi
9:30 PM63 °FClear.3 mph83%29.86 "Hg10 mi
9:00 PM63 °FPassing clouds.3 mph83%29.83 "HgN/A
8:30 PM64 °FPassing clouds.3 mph78%29.83 "HgN/A
8:00 PM66 °FClear.1 mph73%29.83 "Hg10 mi
7:30 PM66 °FSunny.1 mph73%29.83 "Hg10 mi
7:00 PM66 °FPassing clouds.3 mph73%29.83 "HgN/A
6:30 PM66 °FSunny.3 mph78%29.83 "Hg10 mi
6:00 PM68 °FSunny.5 mph69%29.83 "Hg10 mi
5:30 PM70 °FPassing clouds.2 mph57%29.80 "HgN/A
5:00 PM72 °FPassing clouds.2 mph53%29.83 "HgN/A
4:30 PM72 °FPassing clouds.1 mph57%29.83 "HgN/A
4:00 PM72 °FPassing clouds.3 mph57%29.83 "HgN/A
3:30 PM70 °FPassing clouds.1 mph60%29.83 "HgN/A
3:00 PM70 °FScattered clouds.3 mph69%29.83 "HgN/A
Weather by CustomWeather, © 2015

See weather overviewHow to use our weather pages